Location: *
(55.6049°S, 142.1985°W)
Time: 04:02:57
(UTC+00:00)

IRIDIUM 104 - Visible Passes

Search period start: 17 September 2021 00:00
Search period end: 27 September 2021 00:00
Orbit: 776 x 779 km, 86.4° (Epoch: 16 September)

Date Brightness Start Highest point End Pass type
(mag) Time Alt. Az. Time Alt. Az. Time Alt. Az.
17 Sep 4.5 03:43:22 10° NNE 03:48:32 57° E 03:53:46 10° S visible
17 Sep 6.4 05:25:03 10° NW 05:29:38 29° WSW 05:34:16 10° S visible
17 Sep 6.9 14:05:28 10° SSE 14:09:51 25° ESE 14:14:13 10° NE visible
18 Sep 5.6 04:50:48 10° NNW 04:55:50 44° WSW 05:00:57 10° S visible
18 Sep 7.5 13:32:28 10° SSE 13:35:53 17° ESE 13:39:18 10° ENE visible
19 Sep 4.8 04:16:54 10° NNW 04:22:10 70° W 04:27:30 10° S visible
19 Sep 7.5 06:00:54 10° W 06:03:58 15° WSW 06:07:02 10° SSW visible
19 Sep 7.8 13:00:13 10° SE 13:01:48 11° SE 13:03:22 10° ESE visible
19 Sep 5.5 14:38:44 10° S 14:43:56 50° ESE 14:49:03 10° NNE visible
20 Sep 6.9 05:25:49 10° WNW 05:29:58 23° WSW 05:34:08 10° SSW visible
20 Sep 6.4 14:05:23 10° S 14:10:10 32° ESE 14:14:54 10° NE visible
21 Sep 6.2 04:51:18 10° NW 04:56:05 34° WSW 05:00:56 10° S visible
21 Sep 7.1 13:32:13 10° SSE 13:36:17 22° ESE 13:40:19 10° ENE visible
22 Sep 5.4 04:17:11 10° NNW 04:22:20 53° W 04:27:34 10° S visible
22 Sep 7.8 06:02:30 10° WSW 06:04:25 12° SW 06:06:21 10° SW visible
22 Sep 7.7 12:59:23 10° SSE 13:02:16 14° ESE 13:05:07 10° E visible
23 Sep 7.4 05:26:47 10° WNW 05:30:21 18° WSW 05:33:55 10° SSW visible
23 Sep 5.9 14:05:22 10° S 14:10:25 42° ESE 14:15:26 10° NNE visible
24 Sep 6.8 04:51:57 10° NW 04:56:23 27° WSW 05:00:52 10° SSW visible
24 Sep 6.7 13:32:04 10° S 13:36:37 28° ESE 13:41:06 10° NE visible
25 Sep 6.0 04:17:36 10° NW 04:22:34 40° WSW 04:27:36 10° S visible
25 Sep 7.3 12:59:00 10° SSE 13:02:41 18° ESE 13:06:20 10° ENE visible
26 Sep 7.7 05:28:02 10° W 05:30:46 14° WSW 05:33:30 10° SSW visible
26 Sep 7.7 12:26:29 10° SSE 12:28:36 12° ESE 12:30:43 10° E visible
26 Sep 5.3 14:05:24 10° S 14:10:38 55° E 14:15:49 10° NNE visible
